RH
27 23 19 14 11 9 8 7 6 6 7 7 8 9 6 4 5 6 8 17 28 40 36 45 63 64 75 84 81 77 82 72 65 58 53 45 42 40 35 32 33 35 26 29 36
28 26 22 19 15 11 9 7 5 5 6 6 6 8 8 5 4 5 6 13 23 37 36 55 61 61 69 76 69 74 74 71 60 58 51 46 36 34 36 34 34 31 29 31 34
31 27 24 20 18 15 12 9 6 5 5 5 5 6 8 6 3 7 6 9 17 30 41 60 61 61 68 74 71 73 74 69 64 58 58 47 41 37 39 36 32 25 27 30 34
32 30 26 22 18 17 14 12 9 7 6 5 5 5 7 7 12 8 7 8 11 22 38 54 54 60 65 66 66 71 67 66 59 60 62 53 44 40 41 38 37 30 23 25 30
32 32 28 24 19 18 16 13 10 9 7 5 5 5 6 7 10 7 6 7 9 13 34 52 54 58 62 61 66 70 67 64 64 64 55 47 42 45 50 47 42 29 24 25 29
30 30 28 25 21 19 17 15 12 10 9 8 5 5 6 9 9 7 5 5 7 10 25 47 45 42 55 59 63 65 63 60 62 58 58 54 51 53 54 56 48 31 25 26 31
28 27 25 24 21 19 18 15 15 13 11 9 6 6 6 10 10 10 6 3 5 9 17 32 35 34 49 57 60 64 63 66 66 66 70 62 65 60 57 58 39 29 29 31 31
26 25 22 21 19 18 16 15 15 14 13 11 8 6 8 9 10 11 7 4 7 12 14 20 31 34 43 55 62 65 64 60 69 72 67 67 67 58 52 54 40 35 32 32 31
24 22 22 19 17 15 14 15 17 13 13 12 13 12 11 9 7 10 10 9 9 10 12 14 27 33 36 45 49 60 65 62 65 66 68 86 77 69 64 56 44 42 39 32 31
22 21 21 18 15 14 13 18 19 15 12 12 14 14 14 13 9 9 11 12 11 10 10 12 17 38 40 39 44 51 62 63 65 69 65 80 80 73 69 63 47 44 46 38 31
24 22 21 19 14 12 16 18 17 19 14 16 16 17 17 13 11 11 12 12 10 9 8 9 13 19 36 37 40 41 60 60 63 63 70 70 70 68 70 69 55 49 49 45 33
25 24 21 19 14 14 16 16 16 16 16 14 14 15 15 16 15 13 11 11 11 10 9 9 11 11 22 38 41 37 45 60 68 61 66 71 66 62 65 65 62 53 49 50 41
27 24 23 20 17 14 15 15 15 15 14 13 14 13 14 16 16 15 13 12 12 12 10 11 7 9 11 25 32 31 41 51 53 58 66 66 69 64 66 65 67 61 52 49 47
29 25 24 20 19 19 20 17 15 15 19 19 16 14 14 13 14 14 15 14 12 11 11 10 9 9 11 14 25 30 30 41 54 61 72 65 69 63 67 66 63 63 57 50 50
31 26 25 23 18 20 20 17 15 17 23 17 14 12 13 12 13 15 15 15 13 12 12 10 11 11 11 13 19 25 28 39 49 53 64 66 55 52 62 69 64 59 52 55 60
30 27 24 24 18 20 18 17 16 20 22 15 14 14 14 14 13 14 17 15 15 13 11 10 11 12 12 12 19 22 35 39 48 57 57 53 53 51 59 53 55 55 56 57 57
30 27 23 23 21 20 18 18 21 24 17 16 16 16 16 15 14 15 16 17 16 14 12 11 12 12 14 16 16 21 31 38 39 55 52 49 53 46 46 46 44 49 54 50 57
29 27 25 23 24 20 20 21 26 25 23 19 18 17 17 16 16 15 16 16 14 15 15 15 15 14 15 18 18 19 31 37 37 40 36 41 39 30 33 33 44 48 48 52 55
29 28 26 24 22 22 22 27 28 27 23 21 18 19 18 16 16 16 16 16 14 15 16 16 15 14 15 15 16 17 19 29 32 30 30 33 23 22 39 34 38 51 51 51 51
31 29 30 27 22 24 25 28 27 27 26 23 20 19 18 16 15 16 16 17 14 16 16 17 16 15 15 15 15 17 18 27 30 29 26 26 31 57 49 43 44 52 55 55 59
36 34 33 32 31 28 28 26 23 27 28 25 25 23 21 18 16 15 14 16 17 16 17 16 17 17 14 15 15 15 19 19 23 25 24 23 49 62 61 56 59 60 62 64 62
43 42 36 35 35 34 32 28 24 28 27 27 24 27 23 20 20 18 16 16 18 17 18 18 22 23 19 18 16 15 17 20 22 21 22 25 61 67 71 67 69 71 72 65 59
46 44 39 36 39 39 37 34 33 32 32 32 27 26 25 22 24 21 21 20 20 20 21 18 25 27 21 21 20 18 17 19 20 20 21 22 47 58 77 78 75 75 78 73 69
50 48 44 42 42 45 45 41 38 36 35 35 32 30 26 25 27 27 25 24 24 23 21 20 23 27 28 26 23 22 21 19 21 21 22 26 48 58 68 83 77 85 81 81 83
52 52 51 53 50 53 52 47 46 43 41 42 37 33 30 29 29 32 30 27 28 28 25 23 24 24 27 27 26 25 21 23 21 22 29 45 46 55 65 72 82 79 72 86 88
58 57 56 54 56 57 55 52 52 52 51 51 47 40 36 33 33 35 35 33 31 30 29 28 28 26 27 27 31 31 28 27 22 36 38 43 39 50 61 65 71 69 68 65 76
63 62 61 56 57 58 57 59 58 55 56 55 54 48 43 39 38 37 39 39 40 40 37 32 33 34 29 29 30 35 35 35 41 43 39 41 37 41 48 58 62 66 59 68 76